{"data":{"norad_id":65066,"intl_designator":"2025-165L","name":"STARLINK-34739","alt_names":[],"object_type":"PAYLOAD","status":"ACTIVE","operator":null,"country":"US","launch_date":"2025-07-31","launch_site_code":"AFWTR","launch_vehicle":null,"mission":null,"orbit_class":"UNKNOWN","rcs_meters":null,"size_class":null,"mass_kg":null,"dimensions":null,"purposes":["comms"],"wikipedia_slug":null,"has_3d_model":false,"image_url":null,"decayed_at":null,"tle_current":{"epoch":"2026-05-25T04:16:25.546080Z","epoch_age_seconds":59573,"freshness":"FRESH","line1":"1 65066U 25165L   26145.17807345 -.00001159  00000+0 -76239-4 0  9993","line2":"2 65066  97.4500 222.3146 0002714 196.6801 163.4337 15.05649873 46303","mean_motion":15.05649873,"eccentricity":0.0002714,"inclination_deg":97.45,"raan_deg":222.3146,"arg_perigee_deg":196.6801,"mean_anomaly_deg":163.4337,"bstar":-7.6239e-5,"rev_number":4630,"period_min":95.639764982732,"perigee_km":547.63137978431,"apogee_km":551.39170741378,"semimajor_km":6927.648543599,"source":"CELESTRAK","updated_at":"2026-05-25T13:38:20.678365Z"}}}